Content
SEND FEEDBACK

Daily
Averages
Monthly
Summary
United States of America

OCCIDENTAL, CALIFORNIA


Home > North America > United States > California
Elevation: 305 meters     Latitude: 38 25N     Longitude: 122 59W

WEATHER
 
SELECT A DAY
Number of Records: 201,861;   Date Range: 1/1/95 - 9/18/14
 
SHARE

PRINT THIS DATA

[ ← Previous Day ]
WEATHER ALMANAC - 31 JANUARY, 2013
[ Next Day → ]
[ °F ]   °C
Weather ElementAverageHighLow
Temperature5.9 °C18.9 °C (2:53 pm)0 °C (6:53 am)
Dewpoint2.9 °C6.7 °C (12:53 pm)-1 °C (7:18 am)
Humidity83.9 %100 % (1:09 am)43 % (2:53 pm)
Barometer1024 hPa1025.7 hPa (7:18 am)1021.3 hPa (3:53 pm)
Wind Speed1.8 km/h9.3 km/h (3:53 pm)
Weather ElementAverage
Visibility7.2 km
Wind DirectionENE (64 °)

Weather ElementTotal
Precipitation---
Heating Degree Days8.9 (Base 18.3)
Averaged from 40 records on 31 January, 2013
WEATHER CONDITIONS BREAKOUT
WIND DIRECTION BREAKOUT
WEATHER BY HOUR - 31 JANUARY, 2013
[ °F ]   °C
Local TimeTemperatureDewpointHumidityBarometerVisibilityWind DirectionWind SpeedGust SpeedPrecipitationEventsConditions
1:09 AM3 °C3 °C100 %1025.4 hPa2.4 kmWNW (290°)5.6 km/hClear
1:14 AM3 °C3 °C100 %1025.4 hPa4.8 kmCalmClear
1:32 AM3 °C2 °C93 %1025.4 hPa2.4 kmNorth (350°)5.6 km/hClear
1:53 AM3.3 °C2.2 °C93 %1025.1 hPa4.8 kmCalmClear
2:33 AM2 °C1 °C93 %1025.1 hPa2.4 kmWNW (300°)5.6 km/hPartly Cloudy
2:36 AM2 °C1 °C93 %1025.1 hPa1.3 kmNW (310°)5.6 km/hMist
3:05 AM3 °C2 °C93 %1025.1 hPa1.9 kmCalmPartly Cloudy
3:15 AM2 °C1 °C93 %1025.1 hPa1.3 kmCalmMist
3:53 AM2.2 °C1.1 °C93 %1024.4 hPa0.8 kmCalmFogFog
4:07 AM2 °C1 °C93 %1025.1 hPa0.3 kmCalmFogFog
4:15 AM2 °C1 °C93 %1025.1 hPa0.8 kmCalmFogFog
4:53 AM1.1 °C0.6 °C96 %1024.4 hPa1.3 kmCalmMist
4:57 AM2 °C1 °C93 %1025.1 hPa1.9 kmCalmPartly Cloudy
5:05 AM2 °C1 °C93 %1025.1 hPa1.3 kmCalmClear
5:17 AM2 °C1 °C93 %1025.1 hPa1.6 kmCalmMist
5:23 AM1 °C0 °C93 %1025.1 hPa3.2 kmCalmMostly Cloudy
5:34 AM1 °C0 °C93 %1025.1 hPa1.3 kmCalmMist
5:53 AM1.1 °C0.6 °C96 %1024.7 hPa0.8 kmCalmFogFog
6:04 AM1 °C0 °C93 %1025.4 hPa0.3 kmCalmFogFog
6:38 AM1 °C0 °C93 %1025.4 hPa0.8 kmCalmFogFog
6:53 AM0 °C-0.6 °C96 %1025.1 hPa0.3 kmCalmFogFog
7:18 AM1 °C-1 °C87 %1025.7 hPa0.3 kmCalmFogFog
7:53 AM0.6 °C0 °C96 %1025.4 hPa16.1 kmCalmFogPatches of Fog
8:53 AM4.4 °C3.9 °C97 %1025.7 hPa16.1 kmNNW (330°)7.4 km/hClear
9:53 AM8.9 °C5.6 °C80 %1025.4 hPa16.1 kmNNW (330°)5.6 km/hClear
10:53 AM11.7 °C6.1 °C69 %1025.1 hPa16.1 kmCalmPartly Cloudy
11:53 AM15 °C6.1 °C55 %1024 hPa16.1 kmCalmClear
12:53 PM16.7 °C6.7 °C52 %1023.4 hPa14.5 kmCalmClear
1:53 PM17.8 °C6.1 °C46 %1022.4 hPa14.5 kmVariable5.6 km/hClear
2:53 PM18.9 °C6.1 °C43 %1021.7 hPa14.5 kmSouth (180°)5.6 km/hClear
3:53 PM18.9 °C6.7 °C45 %1021.3 hPa14.5 kmSSE (160°)9.3 km/hScattered Clouds
4:53 PM17.2 °C6.7 °C50 %1021.3 hPa14.5 kmSSE (150°)9.3 km/hClear
5:53 PM13.9 °C6.7 °C62 %1021.7 hPa16.1 kmSSE (160°)7.4 km/hPartly Cloudy
6:53 PM11.7 °C6.1 °C69 %1021.7 hPa16.1 kmCalmPartly Cloudy
7:53 PM11.1 °C6.7 °C74 %1021.7 hPa14.5 kmCalmClear
8:53 PM7.2 °C5 °C86 %1022 hPa14.5 kmCalmClear
9:53 PM6.7 °C5.6 °C93 %1022 hPa16.1 kmCalmClear
10:53 PM6.1 °C5 °C93 %1022 hPa14.5 kmCalmClear
11:41 PM4 °C3 °C93 %1022.7 hPa2.9 kmCalmClear
11:53 PM5 °C3.3 °C89 %1022 hPa6.4 kmCalmClear
Hourly data recorded from KSTS, located 0 kilometers away from Occidental, California







STORIES FROM OUR PARTNERS